This is the latest recevied weather packets stored in our database for station/object F4BQN-15. If no packets are shown the sender has not sent any weather packets the latest 10 day(s).
| Time | Temp. | Humidity | Pressure | Rain* | Wind** | Luminosity | Snow |
|---|---|---|---|---|---|---|---|
| 1777836378 | 17.78° C | 46% | 986.2 hPa | - | - | - | - |
| 1777835478 | 17.78° C | 46% | 985.9 hPa | - | - | - | - |
| 1777834578 | 17.78° C | 46% | 985.9 hPa | - | - | - | - |
| 1777833677 | 18.33° C | 45% | 985.6 hPa | - | - | - | - |
| 1777832777 | 17.78° C | 44% | 985.4 hPa | - | - | - | - |
| 1777831877 | 17.78° C | 42% | 985.4 hPa | - | - | - | - |
| 1777830977 | 17.78° C | 41% | 985.1 hPa | - | - | - | - |
| 1777830077 | 18.33° C | 41% | 984.2 hPa | - | - | - | - |
| 1777829176 | 20.56° C | 40% | 984.2 hPa | - | - | - | - |
| 1777828276 | 20.56° C | 38% | 984.1 hPa | - | - | - | - |
| 1777827376 | 20.56° C | 38% | 984.1 hPa | - | - | - | - |
| 1777826476 | 21.11° C | 38% | 984 hPa | - | - | - | - |
| 1777825576 | 21.11° C | 38% | 984 hPa | - | - | - | - |
| 1777824676 | 21.67° C | 38% | 984.1 hPa | - | - | - | - |
| 1777823776 | 22.78° C | 40% | 984.2 hPa | - | - | - | - |
| 1777822876 | 24.44° C | 36% | 984.1 hPa | - | - | - | - |
| 1777821976 | 25.56° C | 35% | 984.1 hPa | - | - | - | - |
| 1777821075 | 25.56° C | 35% | 984.2 hPa | - | - | - | - |
| 1777820175 | 25.56° C | 35% | 984.4 hPa | - | - | - | - |
| 1777819275 | 26.67° C | 34% | 984.3 hPa | - | - | - | - |
| 1777818375 | 27.22° C | 35% | 984.5 hPa | - | - | - | - |
| 1777817475 | 27.78° C | 34% | 984.7 hPa | - | - | - | - |
| 1777816574 | 28.89° C | 33% | 985.1 hPa | - | - | - | - |
| 1777815674 | 28.33° C | 34% | 985.1 hPa | - | - | - | - |
| 1777814774 | 30.56° C | 32% | 985.2 hPa | - | - | - | - |
* Rain since midnight (hover to see other rain measurements)
** Current wind speed in m/s (hover to see current wind gust speed)